DW7002 Weather Reports


time (UTC)temp
C
wind
direction
speed
KPH
gust
KPH
rain 1hr
cm
rain 24hr
cm
rain mn
cm
humidity
%
barometer
mb
20260508064124 8 329 0.0 0.0 0.00 1.02 0.00 95 1015.6
20260508063117 8 329 0.0 1.6 0.00 1.02 0.00 96 1015.8
20260508062150 8 329 0.0 0.0 0.00 1.02 0.00 95 1015.6
20260508061126 8 329 0.0 0.0 0.00 1.02 0.00 96 1015.7
20260508060116 8 329 0.0 0.0 0.00 1.04 0.00 96 1015.6
20260508055126 9 329 0.0 0.0 0.00 1.04 0.00 96 1015.7
20260508054120 9 329 0.0 0.0 0.00 1.04 0.00 95 1015.7
20260508053132 9 329 0.0 0.0 0.00 1.04 0.00 95 1015.6
20260508052145 9 329 0.0 0.0 0.00 1.04 0.00 96 1015.7
20260508051117 9 329 0.0 0.0 0.00 1.04 0.00 96 1015.6
20260508050134 9 329 0.0 1.6 0.00 1.04 0.00 95 1015.4
20260508045144 10 329 0.0 1.6 0.00 1.12 0.00 96 1015.5
20260508044155 10 329 0.0 0.0 0.00 1.12 0.00 96 1015.4
20260508043147 10 329 0.0 0.0 0.00 1.12 0.00 95 1015.2
20260508042138 10 329 0.0 0.0 0.00 1.12 0.00 96 1015.2
20260508041135 10 329 0.0 0.0 0.00 1.12 0.00 96 1015.1
20260508040128 10 329 0.0 0.0 0.00 1.30 1.12 95 1015.1
20260508035115 10 329 0.0 0.0 0.00 1.30 1.12 95 1015.2
20260508034149 10 329 0.0 0.0 0.00 1.30 1.12 95 1014.9
20260508033125 10 329 0.0 0.0 0.00 1.30 1.12 96 1014.8
20260508032137 11 329 0.0 0.0 0.00 1.30 1.12 96 1014.8
20260508031131 11 329 0.0 0.0 0.00 1.30 1.12 95 1014.7
20260508030129 11 329 0.0 0.0 0.00 1.32 1.12 95 1014.6
20260508025118 11 329 0.0 0.0 0.00 1.32 1.12 95 1014.7
20260508024132 11 329 0.0 1.6 0.00 1.32 1.12 95 1014.6
20260508023124 11 329 0.0 0.0 0.00 1.32 1.12 96 1014.4
20260508022122 12 329 0.0 0.0 0.00 1.32 1.12 96 1014.2
20260508021135 12 329 0.0 1.6 0.00 1.32 1.12 95 1014.3
20260508020127 12 329 0.0 1.6 0.00 1.32 1.12 96 1014.1
20260508015123 12 329 0.0 0.0 0.00 1.32 1.12 96 1013.8
20260508014155 12 329 0.0 0.0 0.00 1.32 1.12 96 1013.7
20260508013127 12 329 0.0 0.0 0.00 1.32 1.12 96 1013.6
20260508012119 12 329 0.0 0.0 0.00 1.32 1.12 96 1013.2
20260508011131 12 329 0.0 0.0 0.00 1.32 1.12 96 1013.2
20260508010147 12 329 0.0 0.0 0.00 1.32 1.12 96 1013.0
20260508005155 13 329 0.0 0.0 0.00 1.32 1.12 96 1013.0
20260508004147 13 329 0.0 0.0 0.00 1.32 1.12 96 1013.0
20260508003118 13 329 0.0 0.0 0.00 1.32 1.12 96 1013.1
20260508002135 13 329 0.0 0.0 0.00 1.32 1.12 96 1013.0
20260508001126 13 329 0.0 0.0 0.00 1.32 1.12 96 1013.2
20260508000138 13 329 0.0 1.6 0.00 1.32 1.12 96 1013.1
20260507235128 13 329 0.0 0.0 0.00 1.32 1.12 96 1012.6
20260507234125 13 329 0.0 0.0 0.03 1.32 1.12 96 1012.5
20260507233117 13 329 0.0 1.6 0.03 1.32 1.12 96 1012.2
20260507232128 13 57 0.0 1.6 0.03 1.32 1.12 96 1012.1
20260507231125 13 57 0.0 1.6 0.03 1.32 1.12 96 1012.0
20260507230117 12 57 0.0 3.2 0.03 1.32 1.12 96 1011.9
20260507225147 12 57 1.6 3.2 0.03 1.32 1.12 96 1011.4
20260507224119 12 57 3.2 3.2 0.00 1.30 1.09 96 1011.6
20260507223151 13 57 1.6 3.2 0.08 1.30 1.09 96 1011.7
20260507222126 13 57 1.6 6.4 0.08 1.30 1.09 96 1011.7
20260507221120 13 60 1.6 6.4 0.08 1.30 1.09 96 1011.5
20260507220132 13 52 1.6 8.0 0.10 1.30 1.09 96 1011.3
20260507215125 13 80 1.6 6.4 0.10 1.30 1.09 96 1011.2
20260507214119 13 40 1.6 6.4 0.15 1.30 1.09 96 1011.1
20260507213131 12 39 1.6 4.8 0.13 1.22 1.02 96 1011.3
20260507212145 12 38 3.2 6.4 0.13 1.22 1.02 96 1011.5
20260507211121 12 40 3.2 8.0 0.13 1.22 1.02 96 1011.1
20260507210133 13 59 3.2 8.0 0.10 1.19 0.99 95 1011.2
20260507205143 13 50 3.2 8.0 0.10 1.19 0.99 95 1010.8
20260507204115 13 53 1.6 6.4 0.05 1.14 0.94 95 1011.1
20260507203153 13 45 3.2 8.0 0.00 1.09 0.89 95 1011.5
20260507202125 13 45 3.2 8.0 0.00 1.09 0.89 95 1011.0
20260507201118 13 49 3.2 8.0 0.00 1.09 0.89 95 1011.1
20260507200129 13 61 1.6 4.8 0.00 1.09 0.89 95 1011.1
20260507195124 13 66 4.8 9.7 0.00 1.09 0.89 95 1011.0
20260507194117 13 42 4.8 8.0 0.00 1.09 0.89 95 1010.9
20260507193131 13 57 3.2 4.8 0.00 1.09 0.89 95 1010.9
20260507192129 13 53 4.8 8.0 0.00 1.09 0.89 96 1010.7
20260507191123 13 64 4.8 8.0 0.00 1.09 0.89 96 1010.9
20260507190134 14 53 1.6 6.4 0.00 1.09 0.89 96 1011.3
20260507185124 13 53 3.2 8.0 0.00 1.12 0.89 95 1010.9
20260507184121 14 61 1.6 8.0 0.00 1.12 0.89 96 1010.9
20260507183134 14 62 3.2 8.0 0.00 1.12 0.89 95 1011.2
20260507182126 15 59 4.8 6.4 0.00 1.12 0.89 95 1011.0
20260507181124 15 36 3.2 9.7 0.00 1.12 0.89 95 1010.9
20260507180114 16 41 4.8 8.0 0.00 1.14 0.89 94 1011.0
20260507175126 16 36 4.8 8.0 0.00 1.14 0.89 95 1011.1
20260507174118 17 50 3.2 3.2 0.00 1.14 0.89 96 1010.9
20260507173115 17 50 1.6 3.2 0.00 1.14 0.89 96 1011.0
20260507172127 17 50 1.6 3.2 0.00 1.14 0.89 96 1010.8
20260507171120 17 50 0.0 1.6 0.00 1.14 0.89 96 1011.0
20260507170115 17 50 0.0 3.2 0.00 1.14 0.89 96 1011.2
20260507165125 18 50 1.6 8.0 0.03 1.14 0.89 95 1010.7
20260507164117 18 265 0.0 1.6 0.03 1.14 0.89 97 1010.3
20260507163130 18 265 0.0 0.0 0.03 1.14 0.89 97 1010.2
20260507162128 18 265 0.0 0.0 0.03 1.14 0.89 97 1010.4
20260507161121 18 257 0.0 0.0 0.05 1.14 0.89 97 1010.6
20260507160130 18 257 0.0 0.0 0.08 1.14 0.89 97 1010.7
20260507155141 17 257 0.0 0.0 0.05 1.12 0.86 97 1011.2
20260507154118 17 257 0.0 3.2 0.08 1.12 0.86 97 1011.4
20260507153131 17 257 0.0 6.4 0.10 1.12 0.86 97 1011.3
20260507152124 17 257 0.0 3.2 0.15 1.12 0.86 97 1011.7
20260507151119 18 257 1.6 3.2 0.13 1.09 0.84 97 1011.9
20260507150150 18 250 1.6 3.2 0.13 1.07 0.81 97 1011.6
20260507145120 18 250 0.0 0.0 0.13 1.07 0.81 97 1011.1
20260507144134 18 250 0.0 0.0 0.13 1.04 0.79 97 1011.1
20260507143131 18 250 0.0 3.2 0.15 1.02 0.76 97 1011.4
20260507142124 18 249 0.0 1.6 0.10 0.97 0.71 97 1011.4
20260507141117 18 168 1.6 3.2 0.15 0.97 0.71 97 1011.4
20260507140127 18 164 0.0 0.0 0.15 0.94 0.69 97 1010.7
20260507135122 17 164 0.0 3.2 0.30 0.94 0.69 97 1010.5
20260507134135 17 253 0.0 0.0 0.33 0.91 0.66 97 1010.9
20260507133126 17 253 0.0 0.0 0.30 0.86 0.61 97 1011.2
20260507132122 17 253 0.0 0.0 0.33 0.86 0.61 97 1011.6
20260507131156 17 253 0.0 0.0 0.30 0.81 0.56 97 1011.7
20260507130128 18 253 0.0 6.4 0.36 0.76 0.51 97 1012.2
20260507125119 18 251 1.6 6.4 0.23 0.64 0.38 97 1012.5
20260507124115 18 251 1.6 3.2 0.15 0.56 0.30 97 1012.2
20260507123128 18 250 1.6 3.2 0.15 0.56 0.30 97 1011.9
20260507122118 17 250 0.0 1.6 0.13 0.53 0.28 97 1011.8
20260507121130 17 250 0.0 1.6 0.10 0.51 0.25 97 1011.9
20260507120128 17 250 0.0 1.6 0.00 0.41 0.15 97 1011.9
20260507115118 17 250 1.6 3.2 0.00 0.41 0.15 97 1011.8
20260507114132 17 250 0.0 1.6 0.00 0.41 0.15 97 1011.5
20260507113128 17 242 1.6 1.6 0.00 0.41 0.15 97 1011.6
20260507112122 17 242 0.0 0.0 0.00 0.41 0.15 97 1011.3
20260507111115 17 242 0.0 0.0 0.03 0.41 0.15 97 1011.2
20260507110127 17 242 0.0 1.6 0.03 0.41 0.15 97 1011.7
20260507105123 17 240 0.0 0.0 0.03 0.41 0.15 97 1011.5
20260507104134 17 240 0.0 3.2 0.03 0.41 0.15 97 1011.6
20260507103127 17 240 0.0 3.2 0.03 0.41 0.15 97 1011.6
20260507102125 17 240 0.0 3.2 0.00 0.38 0.13 97 1011.5
20260507101118 17 240 0.0 3.2 0.00 0.38 0.13 97 1011.4
20260507100129 17 240 0.0 1.6 0.00 0.38 0.13 96 1011.2
20260507095118 17 240 1.6 1.6 0.00 0.38 0.13 97 1011.7
20260507094116 17 240 0.0 1.6 0.00 0.38 0.13 96 1011.6
20260507093129 17 240 0.0 0.0 0.00 0.38 0.13 96 1011.3
20260507092121 17 240 0.0 3.2 0.00 0.38 0.13 96 1011.7
20260507091116 17 186 0.0 6.4 0.03 0.38 0.13 96 1011.3
20260507090128 17 223 1.6 3.2 0.03 0.38 0.13 96 1011.2
20260507085121 17 223 0.0 1.6 0.03 0.38 0.13 96 1011.3
20260507084133 17 223 0.0 0.0 0.03 0.38 0.13 96 1011.2
20260507083147 17 223 0.0 1.6 0.03 0.38 0.13 96 1011.4
20260507082119 17 223 0.0 3.2 0.03 0.38 0.13 96 1011.4
20260507081133 17 248 0.0 3.2 0.00 0.36 0.10 96 1011.4
20260507080125 17 248 0.0 3.2 0.00 0.36 0.10 96 1011.7
20260507075120 17 236 1.6 6.4 0.00 0.36 0.10 96 1012.0
20260507074154 17 246 1.6 3.2 0.00 0.36 0.10 96 1012.2
20260507073126 17 246 0.0 1.6 0.00 0.36 0.10 96 1012.1
20260507072119 17 246 0.0 3.2 0.00 0.36 0.10 96 1011.7
20260507071118 17 223 0.0 3.2 0.00 0.36 0.10 96 1012.0
20260507070129 17 174 0.0 3.2 0.00 0.36 0.10 96 1012.2
20260507065140 17 175 0.0 1.6 0.00 0.36 0.10 96 1012.4